| time (UTC) | temp F | wind direction | speed MPH | gust MPH | rain 1hr in | rain 24hr in | rain mn in | humidity % | barometer mb |
| 20260901222803 | 95 | 179 | 4.0 | 12.0 | 0.00 | 0.00 | 0.00 | 29 | 1015.8 |
| 20260901222633 | 95 | 197 | 4.0 | 12.0 | 0.00 | 0.00 | 0.00 | 30 | 1015.9 |
| 20260901221759 | 95 | 61 | 6.0 | 16.0 | 0.00 | 0.00 | 0.00 | 28 | 1015.9 |
| 20260901221258 | 95 | 247 | 7.0 | 16.0 | 0.00 | 0.00 | 0.00 | 28 | 1015.9 |
| 20260901220801 | 94 | 158 | 6.0 | 18.0 | 0.00 | 0.00 | 0.00 | 30 | 1016.2 |
| 20260901220259 | 93 | 223 | 4.0 | 18.0 | 0.00 | 0.00 | 0.00 | 30 | 1016.1 |
| 20260901215800 | 93 | 195 | 9.0 | 16.0 | 0.00 | 0.00 | 0.00 | 30 | 1016.2 |
| 20260901215340 | 95 | 199 | 8.0 | 13.0 | 0.00 | 0.00 | 0.00 | 30 | 1016.2 |
| 20260901215322 | 94 | 207 | 6.0 | 13.0 | 0.00 | 0.00 | 0.00 | 29 | 1016.3 |
| 20260901213801 | 95 | 216 | 7.0 | 16.0 | 0.00 | 0.00 | 0.00 | 30 | 1016.3 |
| 20260901213505 | 95 | 130 | 2.0 | 19.0 | 0.00 | 0.00 | 0.00 | 29 | 1016.6 |
| 20260901213417 | 96 | 142 | 5.0 | 19.0 | 0.00 | 0.00 | 0.00 | 30 | 1016.4 |
| 20260901212300 | 96 | 145 | 7.0 | 15.0 | 0.00 | 0.00 | 0.00 | 31 | 1016.6 |
| 20260901211758 | 95 | 166 | 2.0 | 14.0 | 0.00 | 0.00 | 0.00 | 30 | 1016.7 |
| 20260901211300 | 95 | 107 | 7.0 | 14.0 | 0.00 | 0.00 | 0.00 | 31 | 1016.7 |
| 20260901211022 | 94 | 104 | 6.0 | 15.0 | 0.00 | 0.00 | 0.00 | 31 | 1016.7 |
| 20260901210804 | 94 | 104 | 6.0 | 15.0 | 0.00 | 0.00 | 0.00 | 31 | 1016.7 |
| 20260901210259 | 95 | 117 | 5.0 | 15.0 | 0.00 | 0.00 | 0.00 | 32 | 1016.9 |
| 20260901205800 | 95 | 180 | 9.0 | 15.0 | 0.00 | 0.00 | 0.00 | 32 | 1016.9 |
| 20260901205259 | 95 | 155 | 4.0 | 15.0 | 0.00 | 0.00 | 0.00 | 31 | 1017.1 |
| 20260901204759 | 95 | 147 | 8.0 | 14.0 | 0.00 | 0.00 | 0.00 | 31 | 1017.2 |
| 20260901204259 | 95 | 147 | 5.0 | 13.0 | 0.00 | 0.00 | 0.00 | 33 | 1017.2 |
| 20260901204130 | 94 | 137 | 4.0 | 16.0 | 0.00 | 0.00 | 0.00 | 33 | 1017.3 |
| 20260901203300 | 91 | 103 | 8.0 | 16.0 | 0.00 | 0.00 | 0.00 | 33 | 1017.4 |
| 20260901202759 | 92 | 231 | 5.0 | 14.0 | 0.00 | 0.00 | 0.00 | 33 | 1017.5 |
| 20260901202300 | 92 | 100 | 4.0 | 13.0 | 0.00 | 0.00 | 0.00 | 33 | 1017.6 |
| 20260901201800 | 93 | 121 | 4.0 | 13.0 | 0.00 | 0.00 | 0.00 | 33 | 1017.7 |
| 20260901201301 | 95 | 193 | 6.0 | 14.0 | 0.00 | 0.00 | 0.00 | 32 | 1017.7 |
| 20260901200800 | 94 | 197 | 6.0 | 19.0 | 0.00 | 0.00 | 0.00 | 32 | 1018.0 |
| 20260901200259 | 94 | 193 | 8.0 | 19.0 | 0.00 | 0.00 | 0.00 | 34 | 1017.8 |
| 20260901195801 | 92 | 190 | 5.0 | 15.0 | 0.00 | 0.00 | 0.00 | 34 | 1018.1 |
| 20260901195642 | 92 | 109 | 5.0 | 15.0 | 0.00 | 0.00 | 0.00 | 33 | 1018.1 |
| 20260901194759 | 92 | 161 | 5.0 | 13.0 | 0.00 | 0.00 | 0.00 | 33 | 1018.1 |
| 20260901194301 | 94 | 197 | 7.0 | 14.0 | 0.00 | 0.00 | 0.00 | 32 | 1018.2 |
| 20260901193759 | 95 | 130 | 6.0 | 14.0 | 0.00 | 0.00 | 0.00 | 33 | 1018.2 |
| 20260901193300 | 93 | 209 | 5.0 | 11.0 | 0.00 | 0.00 | 0.00 | 34 | 1018.2 |
| 20260901193014 | 93 | 200 | 5.0 | 13.0 | 0.00 | 0.00 | 0.00 | 36 | 1018.3 |
| 20260901192915 | 91 | 116 | 4.0 | 11.0 | 0.00 | 0.00 | 0.00 | 34 | 1018.4 |
| 20260901192108 | 92 | 219 | 6.0 | 16.0 | 0.00 | 0.00 | 0.00 | 34 | 1018.5 |
| 20260901191644 | 93 | 114 | 5.0 | 16.0 | 0.00 | 0.00 | 0.00 | 33 | 1018.5 |
| 20260901190800 | 94 | 109 | 6.0 | 16.0 | 0.00 | 0.00 | 0.00 | 32 | 1018.4 |
| 20260901190300 | 94 | 209 | 6.0 | 16.0 | 0.00 | 0.00 | 0.00 | 33 | 1018.5 |
| 20260901185807 | 94 | 166 | 5.0 | 13.0 | 0.00 | 0.00 | 0.00 | 33 | 1018.5 |
| 20260901185300 | 93 | 87 | 4.0 | 14.0 | 0.00 | 0.00 | 0.00 | 33 | 1018.5 |
| 20260901184759 | 92 | 193 | 7.0 | 14.0 | 0.00 | 0.00 | 0.00 | 35 | 1018.7 |
| 20260901184301 | 92 | 124 | 7.0 | 13.0 | 0.00 | 0.00 | 0.00 | 34 | 1018.7 |
| 20260901184138 | 94 | 140 | 4.0 | 12.0 | 0.00 | 0.00 | 0.00 | 33 | 1018.8 |
| 20260901183300 | 94 | 178 | 4.0 | 13.0 | 0.00 | 0.00 | 0.00 | 33 | 1018.8 |
| 20260901183154 | 93 | 230 | 4.0 | 16.0 | 0.00 | 0.00 | 0.00 | 36 | 1019.1 |
| 20260901182300 | 93 | 144 | 8.0 | 16.0 | 0.00 | 0.00 | 0.00 | 34 | 1019.1 |
| 20260901181759 | 92 | 185 | 3.0 | 14.0 | 0.00 | 0.00 | 0.00 | 34 | 1019.1 |
| 20260901181259 | 92 | 158 | 6.0 | 13.0 | 0.00 | 0.00 | 0.00 | 36 | 1019.2 |
| 20260901180807 | 91 | 196 | 4.0 | 15.0 | 0.00 | 0.00 | 0.00 | 36 | 1019.2 |
| 20260901180304 | 92 | 200 | 5.0 | 15.0 | 0.00 | 0.00 | 0.00 | 37 | 1019.3 |
| 20260901175800 | 91 | 230 | 3.0 | 12.0 | 0.00 | 0.00 | 0.00 | 36 | 1019.4 |
| 20260901175300 | 89 | 186 | 5.0 | 13.0 | 0.00 | 0.00 | 0.00 | 37 | 1019.4 |
| 20260901174759 | 91 | 145 | 6.0 | 13.0 | 0.00 | 0.00 | 0.00 | 35 | 1019.4 |
| 20260901174259 | 92 | 203 | 6.0 | 13.0 | 0.00 | 0.00 | 0.00 | 34 | 1019.3 |
| 20260901173759 | 93 | 195 | 7.0 | 13.0 | 0.00 | 0.00 | 0.00 | 36 | 1019.5 |
| 20260901173259 | 92 | 97 | 5.0 | 14.0 | 0.00 | 0.00 | 0.00 | 37 | 1019.5 |
| 20260901172800 | 92 | 176 | 5.0 | 14.0 | 0.00 | 0.00 | 0.00 | 36 | 1019.5 |
| 20260901172257 | 91 | 202 | 6.0 | 14.0 | 0.00 | 0.00 | 0.00 | 39 | 1019.5 |
| 20260901171758 | 88 | 204 | 4.0 | 14.0 | 0.00 | 0.00 | 0.00 | 40 | 1019.6 |
| 20260901171258 | 88 | 196 | 7.0 | 12.0 | 0.00 | 0.00 | 0.00 | 40 | 1019.7 |
| 20260901171147 | 89 | 252 | 5.0 | 12.0 | 0.00 | 0.00 | 0.00 | 41 | 1019.7 |
| 20260901170258 | 88 | 206 | 5.0 | 13.0 | 0.00 | 0.00 | 0.00 | 40 | 1019.6 |
| 20260901165804 | 89 | 206 | 5.0 | 13.0 | 0.00 | 0.00 | 0.00 | 40 | 1019.6 |
| 20260901165300 | 90 | 193 | 6.0 | 13.0 | 0.00 | 0.00 | 0.00 | 41 | 1019.6 |
| 20260901165142 | 90 | 233 | 6.0 | 12.0 | 0.00 | 0.00 | 0.00 | 41 | 1019.6 |
| 20260901164257 | 89 | 252 | 6.0 | 12.0 | 0.00 | 0.00 | 0.00 | 43 | 1019.6 |
| 20260901163759 | 90 | 154 | 5.0 | 12.0 | 0.00 | 0.00 | 0.00 | 42 | 1019.6 |
| 20260901163259 | 89 | 255 | 7.0 | 12.0 | 0.00 | 0.00 | 0.00 | 46 | 1019.6 |
| 20260901162759 | 89 | 254 | 6.0 | 11.0 | 0.00 | 0.00 | 0.00 | 44 | 1019.6 |
| 20260901162258 | 89 | 259 | 4.0 | 13.0 | 0.00 | 0.00 | 0.00 | 45 | 1019.6 |
| 20260901162132 | 88 | 214 | 6.0 | 13.0 | 0.00 | 0.00 | 0.00 | 46 | 1019.5 |
| 20260901161301 | 88 | 216 | 6.0 | 13.0 | 0.00 | 0.00 | 0.00 | 47 | 1019.6 |
| 20260901160759 | 87 | 243 | 6.0 | 16.0 | 0.00 | 0.00 | 0.00 | 49 | 1019.6 |
| 20260901160258 | 87 | 230 | 6.0 | 16.0 | 0.00 | 0.00 | 0.00 | 50 | 1019.5 |
| 20260901155800 | 87 | 217 | 7.0 | 13.0 | 0.00 | 0.00 | 0.00 | 49 | 1019.5 |
| 20260901155300 | 87 | 197 | 7.0 | 15.0 | 0.00 | 0.00 | 0.00 | 50 | 1019.6 |
| 20260901154801 | 86 | 186 | 7.0 | 15.0 | 0.00 | 0.00 | 0.00 | 51 | 1019.6 |
| 20260901154643 | 86 | 203 | 9.0 | 15.0 | 0.00 | 0.00 | 0.00 | 50 | 1019.6 |
| 20260901153802 | 85 | 183 | 6.0 | 14.0 | 0.00 | 0.00 | 0.00 | 51 | 1019.6 |
| 20260901153300 | 85 | 248 | 8.0 | 15.0 | 0.00 | 0.00 | 0.00 | 52 | 1019.6 |
| 20260901152815 | 84 | 219 | 8.0 | 15.0 | 0.00 | 0.00 | 0.00 | 52 | 1019.6 |
| 20260901152305 | 84 | 142 | 6.0 | 14.0 | 0.00 | 0.00 | 0.00 | 53 | 1019.6 |
| 20260901152021 | 83 | 219 | 8.0 | 16.0 | 0.00 | 0.00 | 0.00 | 52 | 1019.6 |
| 20260901151259 | 83 | 248 | 8.0 | 16.0 | 0.00 | 0.00 | 0.00 | 52 | 1019.7 |
| 20260901151234 | 83 | 213 | 6.0 | 13.0 | 0.00 | 0.00 | 0.00 | 53 | 1019.7 |
| 20260901151227 | 83 | 186 | 8.0 | 15.0 | 0.00 | 0.00 | 0.00 | 54 | 1019.8 |
| 20260901151214 | 83 | 216 | 6.0 | 14.0 | 0.00 | 0.00 | 0.00 | 53 | 1019.7 |
| 20260901151207 | 83 | 168 | 8.0 | 15.0 | 0.00 | 0.00 | 0.00 | 53 | 1019.8 |
| 20260901150954 | 83 | 213 | 6.0 | 13.0 | 0.00 | 0.00 | 0.00 | 53 | 1019.7 |
| 20260901144758 | 82 | 216 | 6.0 | 13.0 | 0.00 | 0.00 | 0.00 | 54 | 1019.8 |
| 20260901144301 | 82 | 224 | 7.0 | 13.0 | 0.00 | 0.00 | 0.00 | 56 | 1019.7 |
| 20260901143800 | 81 | 180 | 6.0 | 14.0 | 0.00 | 0.00 | 0.00 | 55 | 1019.7 |
| 20260901143301 | 81 | 230 | 5.0 | 14.0 | 0.00 | 0.00 | 0.00 | 56 | 1019.7 |
| 20260901142801 | 80 | 185 | 5.0 | 9.0 | 0.00 | 0.00 | 0.00 | 57 | 1019.7 |
| 20260901142305 | 80 | 213 | 3.0 | 10.0 | 0.00 | 0.00 | 0.00 | 57 | 1019.8 |
| 20260901141801 | 80 | 200 | 4.0 | 10.0 | 0.00 | 0.00 | 0.00 | 57 | 1019.7 |
| 20260901141715 | 79 | 175 | 3.0 | 9.0 | 0.00 | 0.00 | 0.00 | 57 | 1019.7 |
| 20260901140805 | 78 | 172 | 2.0 | 11.0 | 0.00 | 0.00 | 0.00 | 57 | 1019.8 |
| 20260901140538 | 78 | 193 | 4.0 | 11.0 | 0.00 | 0.00 | 0.00 | 57 | 1020.0 |
| 20260901140314 | 78 | 193 | 4.0 | 11.0 | 0.00 | 0.00 | 0.00 | 57 | 1020.0 |
| 20260901140135 | 78 | 209 | 4.0 | 12.0 | 0.00 | 0.00 | 0.00 | 57 | 1019.8 |
| 20260901135305 | 78 | 221 | 5.0 | 12.0 | 0.00 | 0.00 | 0.00 | 58 | 1019.8 |
| 20260901134759 | 78 | 227 | 4.0 | 9.0 | 0.00 | 0.00 | 0.00 | 58 | 1019.8 |
| 20260901134301 | 77 | 157 | 3.0 | 10.0 | 0.00 | 0.00 | 0.00 | 58 | 1020.0 |
| 20260901133759 | 77 | 228 | 3.0 | 10.0 | 0.00 | 0.00 | 0.00 | 60 | 1020.0 |
| 20260901133301 | 76 | 186 | 3.0 | 7.0 | 0.00 | 0.00 | 0.00 | 59 | 1019.8 |
| 20260901132800 | 76 | 175 | 4.0 | 7.0 | 0.00 | 0.00 | 0.00 | 60 | 1019.8 |
| 20260901132307 | 75 | 206 | 2.0 | 6.0 | 0.00 | 0.00 | 0.00 | 60 | 1019.8 |
| 20260901131759 | 75 | 175 | 3.0 | 9.0 | 0.00 | 0.00 | 0.00 | 60 | 1020.0 |
| 20260901131300 | 75 | 155 | 4.0 | 9.0 | 0.00 | 0.00 | 0.00 | 61 | 1020.0 |
| 20260901130801 | 75 | 193 | 4.0 | 10.0 | 0.00 | 0.00 | 0.00 | 60 | 1019.8 |
| 20260901130301 | 75 | 178 | 4.0 | 10.0 | 0.00 | 0.00 | 0.00 | 60 | 1019.7 |
| 20260901125758 | 75 | 159 | 4.0 | 12.0 | 0.00 | 0.00 | 0.00 | 60 | 1019.7 |
| 20260901125257 | 74 | 228 | 5.0 | 12.0 | 0.00 | 0.00 | 0.00 | 59 | 1019.6 |
| 20260901124800 | 74 | 169 | 3.0 | 9.0 | 0.00 | 0.00 | 0.00 | 59 | 1019.6 |
| 20260901124300 | 74 | 145 | 4.0 | 9.0 | 0.00 | 0.00 | 0.00 | 59 | 1019.6 |
| 20260901123758 | 74 | 166 | 4.0 | 13.0 | 0.00 | 0.00 | 0.00 | 59 | 1019.5 |
| 20260901123258 | 74 | 202 | 5.0 | 13.0 | 0.00 | 0.00 | 0.00 | 59 | 1019.5 |
| 20260901122757 | 74 | 168 | 4.0 | 10.0 | 0.00 | 0.00 | 0.00 | 58 | 1019.4 |
| 20260901122258 | 74 | 172 | 3.0 | 7.0 | 0.00 | 0.00 | 0.00 | 58 | 1019.3 |
| 20260901121758 | 74 | 182 | 3.0 | 9.0 | 0.00 | 0.00 | 0.00 | 58 | 1019.3 |
| 20260901121636 | 74 | 195 | 5.0 | 11.0 | 0.00 | 0.00 | 0.00 | 58 | 1019.3 |
| 20260901120758 | 74 | 227 | 4.0 | 13.0 | 0.00 | 0.00 | 0.00 | 57 | 1019.3 |
| 20260901120533 | 74 | 154 | 4.0 | 9.0 | 0.00 | 0.00 | 0.00 | 57 | 1019.3 |
| 20260901120427 | 74 | 157 | 4.0 | 13.0 | 0.00 | 0.00 | 0.00 | 57 | 1019.2 |
| 20260901115258 | 74 | 138 | 3.0 | 12.0 | 0.00 | 0.00 | 0.00 | 57 | 1019.1 |
| 20260901114758 | 74 | 226 | 4.0 | 12.0 | 0.00 | 0.00 | 0.00 | 57 | 1019.0 |
| 20260901114259 | 74 | 183 | 5.0 | 11.0 | 0.00 | 0.00 | 0.00 | 57 | 1019.1 |
| 20260901113759 | 74 | 173 | 4.0 | 11.0 | 0.00 | 0.00 | 0.00 | 57 | 1019.2 |
| 20260901113300 | 74 | 168 | 4.0 | 9.0 | 0.00 | 0.00 | 0.00 | 57 | 1019.1 |
| 20260901112759 | 74 | 171 | 4.0 | 7.0 | 0.00 | 0.00 | 0.00 | 57 | 1019.2 |
| 20260901112301 | 74 | 161 | 3.0 | 5.0 | 0.00 | 0.00 | 0.00 | 57 | 1019.2 |
| 20260901111758 | 74 | 169 | 1.0 | 4.0 | 0.00 | 0.00 | 0.00 | 57 | 1019.1 |
| 20260901111259 | 74 | 179 | 1.0 | 5.0 | 0.00 | 0.00 | 0.00 | 57 | 1019.3 |
| 20260901111128 | 74 | 206 | 3.0 | 5.0 | 0.00 | 0.00 | 0.00 | 56 | 1019.2 |
| 20260901110302 | 74 | 172 | 2.0 | 5.0 | 0.00 | 0.00 | 0.00 | 57 | 1019.1 |
| 20260901105758 | 74 | 130 | 1.0 | 5.0 | 0.00 | 0.00 | 0.00 | 56 | 1019.1 |
| 20260901105259 | 74 | 162 | 1.0 | 5.0 | 0.00 | 0.00 | 0.00 | 56 | 1019.1 |
| 20260901104758 | 74 | 134 | 2.0 | 5.0 | 0.00 | 0.00 | 0.00 | 56 | 1019.0 |
| 20260901104301 | 74 | 135 | 2.0 | 5.0 | 0.00 | 0.00 | 0.00 | 56 | 1019.0 |
| 20260901104125 | 74 | 144 | 3.0 | 7.0 | 0.00 | 0.00 | 0.00 | 56 | 1018.8 |
| 20260901103258 | 74 | 140 | 4.0 | 7.0 | 0.00 | 0.00 | 0.00 | 56 | 1018.8 |
| 20260901102802 | 74 | 166 | 3.0 | 5.0 | 0.00 | 0.00 | 0.00 | 56 | 1019.0 |
| 20260901102258 | 74 | 210 | 2.0 | 5.0 | 0.00 | 0.00 | 0.00 | 56 | 1019.0 |
| 20260901101758 | 74 | 165 | 2.0 | 5.0 | 0.00 | 0.00 | 0.00 | 55 | 1018.8 |
| 20260901101619 | 74 | 166 | 2.0 | 6.0 | 0.00 | 0.00 | 0.00 | 55 | 1018.8 |
| 20260901100758 | 74 | 203 | 2.0 | 6.0 | 0.00 | 0.00 | 0.00 | 55 | 1018.8 |
| 20260901100506 | 74 | 173 | 3.0 | 6.0 | 0.00 | 0.00 | 0.00 | 54 | 1018.7 |
| 20260901100416 | 74 | 197 | 3.0 | 5.0 | 0.00 | 0.00 | 0.00 | 54 | 1018.8 |
| 20260901095259 | 75 | 148 | 2.0 | 6.0 | 0.00 | 0.00 | 0.00 | 54 | 1018.8 |
| 20260901094758 | 75 | 166 | 1.0 | 6.0 | 0.00 | 0.00 | 0.00 | 53 | 1018.8 |
| 20260901094258 | 75 | 166 | 2.0 | 10.0 | 0.00 | 0.00 | 0.00 | 52 | 1019.0 |
| 20260901093757 | 75 | 203 | 4.0 | 10.0 | 0.00 | 0.00 | 0.00 | 52 | 1019.0 |
| 20260901093259 | 75 | 182 | 4.0 | 10.0 | 0.00 | 0.00 | 0.00 | 52 | 1019.0 |
| 20260901092759 | 76 | 179 | 4.0 | 10.0 | 0.00 | 0.00 | 0.00 | 51 | 1019.0 |
| 20260901092300 | 76 | 189 | 4.0 | 10.0 | 0.00 | 0.00 | 0.00 | 51 | 1019.0 |
| 20260901091758 | 77 | 204 | 4.0 | 10.0 | 0.00 | 0.00 | 0.00 | 51 | 1019.0 |
| 20260901091258 | 77 | 124 | 5.0 | 9.0 | 0.00 | 0.00 | 0.00 | 50 | 1018.8 |
| 20260901090758 | 77 | 152 | 4.0 | 9.0 | 0.00 | 0.00 | 0.00 | 50 | 1019.0 |
| 20260901090258 | 76 | 190 | 4.0 | 9.0 | 0.00 | 0.00 | 0.00 | 51 | 1019.0 |
| 20260901090124 | 76 | 109 | 3.0 | 7.0 | 0.00 | 0.00 | 0.00 | 51 | 1019.0 |
| 20260901085258 | 76 | 185 | 4.0 | 7.0 | 0.00 | 0.00 | 0.00 | 51 | 1019.0 |
| 20260901084758 | 76 | 166 | 4.0 | 9.0 | 0.00 | 0.00 | 0.00 | 50 | 1018.8 |
| 20260901084259 | 76 | 179 | 3.0 | 10.0 | 0.00 | 0.00 | 0.00 | 50 | 1018.8 |
| 20260901083758 | 76 | 102 | 4.0 | 10.0 | 0.00 | 0.00 | 0.00 | 50 | 1018.7 |
| 20260901083624 | 76 | 128 | 3.0 | 11.0 | 0.00 | 0.00 | 0.00 | 50 | 1018.7 |
| 20260901082803 | 77 | 124 | 4.0 | 11.0 | 0.00 | 0.00 | 0.00 | 50 | 1018.8 |
| 20260901082259 | 77 | 148 | 4.0 | 10.0 | 0.00 | 0.00 | 0.00 | 49 | 1018.8 |
| 20260901081758 | 78 | 176 | 4.0 | 10.0 | 0.00 | 0.00 | 0.00 | 48 | 1018.8 |
| 20260901081300 | 78 | 182 | 3.0 | 11.0 | 0.00 | 0.00 | 0.00 | 48 | 1018.7 |
| 20260901080800 | 78 | 140 | 6.0 | 12.0 | 0.00 | 0.00 | 0.00 | 48 | 1018.7 |
| 20260901080530 | 78 | 130 | 4.0 | 12.0 | 0.00 | 0.00 | 0.00 | 48 | 1018.7 |
| 20260901080514 | 78 | 185 | 5.0 | 12.0 | 0.00 | 0.00 | 0.00 | 48 | 1018.7 |
| 20260901075258 | 78 | 168 | 4.0 | 10.0 | 0.00 | 0.00 | 0.00 | 48 | 1018.7 |
| 20260901074759 | 78 | 189 | 4.0 | 10.0 | 0.00 | 0.00 | 0.00 | 49 | 1018.7 |
| 20260901074259 | 78 | 157 | 5.0 | 11.0 | 0.00 | 0.00 | 0.00 | 48 | 1018.7 |
| 20260901073758 | 78 | 182 | 5.0 | 11.0 | 0.00 | 0.00 | 0.00 | 49 | 1018.8 |
| 20260901073258 | 78 | 123 | 5.0 | 10.0 | 0.00 | 0.00 | 0.00 | 49 | 1018.7 |
| 20260901073127 | 78 | 75 | 4.0 | 7.0 | 0.00 | 0.00 | 0.00 | 50 | 1018.8 |
| 20260901072259 | 77 | 110 | 3.0 | 7.0 | 0.00 | 0.00 | 0.00 | 50 | 1018.8 |
| 20260901072141 | 77 | 178 | 2.0 | 6.0 | 0.00 | 0.00 | 0.00 | 50 | 1018.8 |
| 20260901071301 | 77 | 161 | 1.0 | 4.0 | 0.00 | 0.00 | 0.00 | 51 | 1018.8 |
| 20260901070803 | 76 | 102 | 2.0 | 4.0 | 0.00 | 0.00 | 0.00 | 52 | 1019.0 |
| 20260901070303 | 76 | 149 | 1.0 | 3.0 | 0.00 | 0.00 | 0.00 | 54 | 1019.0 |
| 20260901065758 | 75 | 186 | 0.0 | 4.0 | 0.00 | 0.00 | 0.00 | 55 | 1019.1 |
| 20260901065259 | 75 | 155 | 1.0 | 4.0 | 0.00 | 0.00 | 0.00 | 56 | 1019.1 |
| 20260901064759 | 75 | 149 | 0.0 | 0.0 | 0.00 | 0.00 | 0.00 | 55 | 1019.1 |
| 20260901064259 | 74 | 134 | 0.0 | 0.0 | 0.00 | 0.00 | 0.00 | 57 | 1019.2 |
| 20260901063758 | 74 | 183 | 0.0 | 0.0 | 0.00 | 0.00 | 0.00 | 59 | 1019.1 |
| 20260901063257 | 75 | 134 | 0.0 | 0.0 | 0.00 | 0.00 | 0.00 | 57 | 1019.1 |
| 20260901062758 | 75 | 162 | 0.0 | 0.0 | 0.00 | 0.00 | 0.00 | 56 | 1019.2 |
| 20260901062527 | 75 | 176 | 0.0 | 0.0 | 0.00 | 0.00 | 0.00 | 57 | 1019.1 |
| 20260901062300 | 75 | 176 | 0.0 | 0.0 | 0.00 | 0.00 | 0.00 | 57 | 1019.1 |
| 20260901061759 | 76 | 145 | 0.0 | 3.0 | 0.00 | 0.00 | 0.00 | 54 | 1019.2 |
| 20260901061258 | 76 | 123 | 1.0 | 3.0 | 0.00 | 0.00 | 0.00 | 54 | 1019.1 |
| 20260901060759 | 76 | 128 | 1.0 | 3.0 | 0.00 | 0.00 | 0.00 | 54 | 1019.1 |
| 20260901060627 | 76 | 128 | 1.0 | 3.0 | 0.00 | 0.00 | 0.00 | 54 | 1019.1 |
| 20260901055803 | 76 | 117 | 1.0 | 2.0 | 0.00 | 0.00 | 0.00 | 54 | 1019.1 |
| 20260901055633 | 76 | 123 | 0.0 | 4.0 | 0.00 | 0.00 | 0.00 | 54 | 1019.1 |
| 20260901054758 | 77 | 141 | 1.0 | 4.0 | 0.00 | 0.00 | 0.00 | 53 | 1019.0 |
| 20260901054257 | 77 | 128 | 0.0 | 4.0 | 0.00 | 0.00 | 0.00 | 53 | 1019.0 |
| 20260901053757 | 77 | 154 | 1.0 | 4.0 | 0.00 | 0.00 | 0.00 | 52 | 1019.0 |
| 20260901053639 | 77 | 127 | 0.0 | 2.0 | 0.00 | 0.00 | 0.00 | 53 | 1019.0 |
| 20260901052757 | 77 | 183 | 0.0 | 3.0 | 0.00 | 0.00 | 0.00 | 53 | 1019.0 |
| 20260901052259 | 77 | 182 | 0.0 | 4.0 | 0.00 | 0.00 | 0.00 | 53 | 1019.0 |
| 20260901051757 | 78 | 116 | 2.0 | 4.0 | 0.00 | 0.00 | 0.00 | 52 | 1019.0 |
| 20260901051636 | 78 | 109 | 2.0 | 4.0 | 0.00 | 0.00 | 0.00 | 51 | 1018.8 |
| 20260901050757 | 79 | 113 | 2.0 | 4.0 | 0.00 | 0.00 | 0.00 | 50 | 1018.8 |
| 20260901050259 | 79 | 118 | 0.0 | 5.0 | 0.00 | 0.00 | 0.00 | 50 | 1019.0 |
| 20260901045759 | 79 | 155 | 2.0 | 5.0 | 0.00 | 0.00 | 0.00 | 50 | 1018.8 |
| 20260901045637 | 79 | 103 | 3.0 | 5.0 | 0.00 | 0.00 | 0.00 | 49 | 1018.8 |
| 20260901044757 | 80 | 138 | 3.0 | 7.0 | 0.00 | 0.00 | 0.00 | 49 | 1018.8 |
| 20260901044654 | 80 | 154 | 3.0 | 7.0 | 0.00 | 0.00 | 0.00 | 49 | 1018.7 |
| 20260901043759 | 80 | 113 | 3.0 | 5.0 | 0.00 | 0.00 | 0.00 | 49 | 1018.7 |
| 20260901043257 | 80 | 125 | 1.0 | 6.0 | 0.00 | 0.00 | 0.00 | 49 | 1018.7 |
| 20260901042802 | 80 | 125 | 3.0 | 6.0 | 0.00 | 0.00 | 0.00 | 49 | 1018.7 |
| 20260901042258 | 80 | 120 | 2.0 | 5.0 | 0.00 | 0.00 | 0.00 | 49 | 1018.6 |
| 20260901041757 | 80 | 123 | 2.0 | 5.0 | 0.00 | 0.00 | 0.00 | 49 | 1018.7 |
| 20260901041259 | 80 | 147 | 3.0 | 5.0 | 0.00 | 0.00 | 0.00 | 49 | 1018.6 |
| 20260901040758 | 80 | 109 | 3.0 | 5.0 | 0.00 | 0.00 | 0.00 | 48 | 1018.5 |
| 20260901040301 | 80 | 109 | 4.0 | 6.0 | 0.00 | 0.00 | 0.00 | 48 | 1018.5 |
| 20260901035757 | 81 | 159 | 3.0 | 6.0 | 0.00 | 0.00 | 0.00 | 47 | 1018.4 |
| 20260901035305 | 81 | 110 | 3.0 | 9.0 | 0.00 | 0.00 | 0.00 | 47 | 1018.4 |
| 20260901034758 | 81 | 114 | 3.0 | 9.0 | 0.00 | 0.00 | 0.00 | 46 | 1018.4 |
| 20260901034257 | 81 | 117 | 4.0 | 9.0 | 0.00 | 0.00 | 0.00 | 46 | 1018.2 |
| 20260901033758 | 81 | 130 | 2.0 | 6.0 | 0.00 | 0.00 | 0.00 | 46 | 1018.2 |
| 20260901033450 | 81 | 124 | 2.0 | 6.0 | 0.00 | 0.00 | 0.00 | 45 | 1018.2 |
| 20260901033405 | 81 | 123 | 2.0 | 6.0 | 0.00 | 0.00 | 0.00 | 45 | 1018.2 |
| 20260901032258 | 82 | 104 | 3.0 | 6.0 | 0.00 | 0.00 | 0.00 | 45 | 1018.0 |
| 20260901031759 | 82 | 121 | 3.0 | 6.0 | 0.00 | 0.00 | 0.00 | 45 | 1018.0 |
| 20260901031258 | 82 | 120 | 4.0 | 6.0 | 0.00 | 0.00 | 0.00 | 45 | 1017.8 |
| 20260901030758 | 82 | 154 | 3.0 | 6.0 | 0.00 | 0.00 | 0.00 | 45 | 1017.7 |
| 20260901030259 | 82 | 109 | 3.0 | 6.0 | 0.00 | 0.00 | 0.00 | 44 | 1017.6 |
| 20260901025802 | 83 | 97 | 4.0 | 6.0 | 0.00 | 0.00 | 0.00 | 43 | 1017.5 |
| 20260901025257 | 83 | 107 | 2.0 | 5.0 | 0.00 | 0.00 | 0.00 | 43 | 1017.5 |
| 20260901024757 | 83 | 109 | 3.0 | 7.0 | 0.00 | 0.00 | 0.00 | 43 | 1017.3 |
| 20260901024257 | 82 | 130 | 3.0 | 7.0 | 0.00 | 0.00 | 0.00 | 43 | 1017.2 |
| 20260901023758 | 83 | 157 | 2.0 | 4.0 | 0.00 | 0.00 | 0.00 | 43 | 1017.2 |
| 20260901023301 | 83 | 135 | 2.0 | 5.0 | 0.00 | 0.00 | 0.00 | 42 | 1016.9 |
| 20260901022757 | 84 | 189 | 2.0 | 6.0 | 0.00 | 0.00 | 0.00 | 41 | 1016.8 |
| 20260901022257 | 84 | 171 | 2.0 | 6.0 | 0.00 | 0.00 | 0.00 | 41 | 1016.7 |
| 20260901021759 | 84 | 96 | 2.0 | 6.0 | 0.00 | 0.00 | 0.00 | 40 | 1016.6 |
| 20260901021258 | 85 | 164 | 3.0 | 9.0 | 0.00 | 0.00 | 0.00 | 40 | 1016.5 |
| 20260901020759 | 85 | 149 | 3.0 | 9.0 | 0.00 | 0.00 | 0.00 | 40 | 1016.5 |
| 20260901020533 | 85 | 140 | 2.0 | 10.0 | 0.00 | 0.00 | 0.00 | 39 | 1016.3 |
| 20260901020424 | 85 | 154 | 3.0 | 9.0 | 0.00 | 0.00 | 0.00 | 40 | 1016.4 |
| 20260901015257 | 85 | 131 | 3.0 | 10.0 | 0.00 | 0.00 | 0.00 | 39 | 1016.3 |
| 20260901014758 | 86 | 106 | 3.0 | 6.0 | 0.00 | 0.00 | 0.00 | 38 | 1016.3 |
| 20260901014257 | 86 | 124 | 4.0 | 9.0 | 0.00 | 0.00 | 0.00 | 38 | 1016.1 |
| 20260901013757 | 86 | 141 | 3.0 | 9.0 | 0.00 | 0.00 | 0.00 | 37 | 1016.1 |
| 20260901013618 | 87 | 133 | 2.0 | 9.0 | 0.00 | 0.00 | 0.00 | 37 | 1016.1 |
| 20260901012758 | 87 | 135 | 4.0 | 9.0 | 0.00 | 0.00 | 0.00 | 36 | 1015.9 |
| 20260901012652 | 87 | 149 | 4.0 | 9.0 | 0.00 | 0.00 | 0.00 | 36 | 1015.9 |
| 20260901011758 | 87 | 161 | 3.0 | 7.0 | 0.00 | 0.00 | 0.00 | 36 | 1016.1 |
| 20260901011654 | 88 | 124 | 3.0 | 9.0 | 0.00 | 0.00 | 0.00 | 35 | 1015.9 |
| 20260901010757 | 88 | 135 | 3.0 | 11.0 | 0.00 | 0.00 | 0.00 | 34 | 1015.9 |
| 20260901010258 | 89 | 179 | 3.0 | 11.0 | 0.00 | 0.00 | 0.00 | 34 | 1015.9 |
| 20260901010152 | 89 | 128 | 5.0 | 10.0 | 0.00 | 0.00 | 0.00 | 34 | 1015.8 |
| 20260901005258 | 89 | 154 | 4.0 | 14.0 | 0.00 | 0.00 | 0.00 | 34 | 1015.9 |
| 20260901004800 | 89 | 166 | 4.0 | 14.0 | 0.00 | 0.00 | 0.00 | 33 | 1015.8 |
| 20260901004256 | 89 | 100 | 4.0 | 12.0 | 0.00 | 0.00 | 0.00 | 33 | 1015.7 |
| 20260901003758 | 90 | 144 | 6.0 | 12.0 | 0.00 | 0.00 | 0.00 | 32 | 1015.7 |
| 20260901003258 | 90 | 114 | 5.0 | 11.0 | 0.00 | 0.00 | 0.00 | 32 | 1015.7 |
| 20260901003134 | 91 | 111 | 5.0 | 14.0 | 0.00 | 0.00 | 0.00 | 31 | 1015.7 |
| 20260901002643 | 91 | 110 | 6.0 | 15.0 | 0.00 | 0.00 | 0.00 | 31 | 1015.7 |
| 20260901001757 | 91 | 106 | 7.0 | 15.0 | 0.00 | 0.00 | 0.00 | 30 | 1015.7 |
| 20260901001256 | 91 | 145 | 5.0 | 10.0 | 0.00 | 0.00 | 0.00 | 31 | 1015.6 |
| 20260901000757 | 91 | 141 | 5.0 | 13.0 | 0.00 | 0.00 | 0.00 | 31 | 1015.7 |
| 20260901000624 | 92 | 151 | 5.0 | 13.0 | 0.00 | 0.00 | 0.00 | 30 | 1015.7 |
| 20260831235758 | 92 | 172 | 6.0 | 13.0 | 0.00 | 0.00 | 0.00 | 30 | 1015.8 |
| 20260831235630 | 92 | 104 | 4.0 | 11.0 | 0.00 | 0.00 | 0.00 | 30 | 1015.8 |
| 20260831235103 | 93 | 245 | 6.0 | 13.0 | 0.00 | 0.00 | 0.00 | 29 | 1015.7 |
| 20260831234257 | 93 | 262 | 7.0 | 13.0 | 0.00 | 0.00 | 0.00 | 29 | 1015.7 |
| 20260831233757 | 93 | 185 | 4.0 | 14.0 | 0.00 | 0.00 | 0.00 | 29 | 1015.7 |
| 20260831233300 | 93 | 171 | 6.0 | 17.0 | 0.00 | 0.00 | 0.00 | 28 | 1015.6 |
| 20260831232758 | 93 | 93 | 7.0 | 17.0 | 0.00 | 0.00 | 0.00 | 29 | 1015.7 |
| 20260831232321 | 94 | 97 | 6.0 | 15.0 | 0.00 | 0.00 | 0.00 | 29 | 1015.7 |
| 20260831231918 | 94 | 200 | 6.0 | 15.0 | 0.00 | 0.00 | 0.00 | 29 | 1015.7 |
| 20260831231133 | 94 | 121 | 3.0 | 13.0 | 0.00 | 0.00 | 0.00 | 29 | 1015.8 |
| 20260831230633 | 94 | 133 | 5.0 | 13.0 | 0.00 | 0.00 | 0.00 | 28 | 1015.9 |
| 20260831225758 | 94 | 93 | 6.0 | 16.0 | 0.00 | 0.00 | 0.00 | 28 | 1015.9 |
| 20260831225257 | 94 | 173 | 7.0 | 16.0 | 0.00 | 0.00 | 0.00 | 29 | 1015.9 |
| 20260831224757 | 95 | 100 | 6.0 | 17.0 | 0.00 | 0.00 | 0.00 | 29 | 1016.1 |
| 20260831224258 | 95 | 180 | 5.0 | 17.0 | 0.00 | 0.00 | 0.00 | 29 | 1016.1 |
| 20260831224123 | 95 | 134 | 8.0 | 20.0 | 0.00 | 0.00 | 0.00 | 29 | 1015.9 |
| 20260831223257 | 95 | 131 | 4.0 | 20.0 | 0.00 | 0.00 | 0.00 | 29 | 1016.1 |